Flag for Japan Weather past 2 weeks in Nagasaki, Japan

Now
50 °F

Cool.


Feels Like: 50 °F
Forecast: 44 / 55 °F
Wind: No wind

Location: Nagasaki

Current Time: Jan 27, 2015 at 5:28:29 AM

Latest Report: Jan 27, 2015 at 4:00 AM


Visibility: N/A

Pressure: 30.08 "Hg

Humidity: 93%

Dew point: 48 °F

Location of NagasakiLocation

Historic Weather in Nagasaki — Graph

°F

Nagasaki temperature yesterday

Maximum temperature yesterday: 57 °F (at 1:00 PM)
Minimum temperature yesterday: 50 °F (at 2:00 AM)
Average temperature yesterday: 54 °F

Past Weeks' High & Low Weather Summary

 TemperatureHumidityPressure
High58 °F (Jan 25, 3:00 PM)99% (Jan 22, 6:00 AM)30.53 "Hg (Jan 22, 6:00 AM)
Low33 °F (Jan 18, 7:00 AM)36% (Jan 17, 3:00 PM)29.83 "Hg (Jan 15, 12:00 AM)
Average47 °F70%30.20 "Hg
* Reported Jan 12 4:00 AM — Jan 27 4:00 AM, Nagasaki, Weather by CustomWeather, © 2014

Note: Actual official high and low records may vary slightly from our data, if they occured in-between our weather recording intervals... More about our weather records

Advertising

Nagasaki weather history for previous 24 hours

 ConditionsComfort  
Time TempWeatherWind HumidityBarometerVisibility
4:00 AM
Jan 27
50 °FCool.No wind93%30.08 "HgN/A
3:00 AM51 °FFog.3 mph90%30.05 "Hg5 mi
2:00 AM52 °FCool.2 mph89%30.07 "HgN/A
1:00 AM51 °FCool.1 mph93%30.06 "HgN/A
12:00 AM51 °FCool.1 mph94%30.06 "HgN/A
11:00 PM
Jan 26
52 °FCool.1 mph91%30.06 "HgN/A
10:00 PM53 °FCool.2 mph88%30.06 "HgN/A
9:00 PM54 °FOvercast.5 mph79%30.08 "Hg6 mi
8:00 PM55 °FCool.5 mph74%30.07 "HgN/A
7:00 PM55 °FCool.5 mph79%30.07 "HgN/A
6:00 PM56 °FFog.3 mph80%30.06 "Hg5 mi
5:00 PM56 °FCool.5 mph81%30.04 "HgN/A
4:00 PM56 °FCool.3 mph88%30.02 "HgN/A
3:00 PM56 °FRain showers. Low clouds.3 mph93%30.00 "Hg2 mi
2:00 PM57 °FCool.5 mph94%30.01 "HgN/A
1:00 PM57 °FCool.2 mph92%30.01 "HgN/A
11:00 AM56 °FCool.1 mph95%30.07 "HgN/A
10:00 AM55 °FCool.2 mph96%30.08 "HgN/A
9:00 AM54 °FLow clouds.2 mph96%30.08 "Hg9 mi
8:00 AM54 °FCool.5 mph94%30.08 "HgN/A
7:00 AM53 °FCool.3 mph95%30.08 "HgN/A
6:00 AM52 °FRain showers. Overcast.3 mph95%30.08 "Hg5 mi
5:00 AM52 °FCool.3 mph94%30.10 "HgN/A
Weather by CustomWeather, © 2014

See weather overviewHow to use our weather pages